Location: Julian California
(33.0790°N, 116.6010°W)
Time: 03:01:24
(UTC-07:00)

GPS 2-05 Rocket1 - Pass Details

Date: 12 July 2018
Orbit: 354 x 405 km, 35.6° (Epoch: 20 July)

Event Time Altitude Azimuth Distance (km) Brightness Sun altitude
Rises 21:48:13 0° 256° (WSW) 2,182 6.8 -19.7°
Reaches altitude 10° 21:50:14 10° 257° (WSW) 1,346 5.7 -20.0°
Enters shadow 21:52:38 51° 263° (W) 466 3.1 -20.4°
